Curacao Island, Netherlands

12:25 AM AST on February 24, 2017 (GMT -0400)
Flamingo

Weather History for TNCB - April, 2012

Change the Weather History Date:

Wednesday, April 25, 2012

  Actual Average Record
Temperature  
Mean Temperature 84 °F -  
Max Temperature 87 °F 86 °F 91 °F (2005)
Min Temperature 80 °F 80 °F 32 °F (2011)
Cooling Degree Days 18    
Growing Degree Days 34 (Base 50)    
Moisture  
Dew Point 75 °F    
Average Humidity 76    
Maximum Humidity 84    
Minimum Humidity 61    
Precipitation  
Precipitation 0.00 in - - ()
Sea Level Pressure  
Sea Level Pressure 29.87 in    
Wind  
Wind Speed 16 mph ()    
Max Wind Speed 23 mph    
Max Gust Speed -    
Visibility 9.9 miles    
Events      
Averages and records for this station are not official NWS values.
T = Trace of Precipitation, MM = Missing Value Source: Averaged Metar Reports

Daily Weather History Graph

Daily Weather History Graph

Search for Another Location

Airport or City:

Trip Planner

Search our weather history database for the weather conditions in past years. The results will help you decide how hot, cold, wet, or windy it might be!

Date:

Astronomy

Apr. 25, 2012 Rise Set
Actual Time 6:15 AM AST 6:46 PM AST
Civil Twilight 5:53 AM AST 7:08 PM AST
Nautical Twilight 5:28 AM AST 7:33 PM AST
Astronomical Twilight 5:02 AM AST 7:59 PM AST
Moon 9:22 AM AST (4/25) 10:26 PM AST (4/25)
Length of Visible Light 13h 14m
Length of Day
12h 30m
Waxing Crescent, 16% of the Moon is Illuminated
Apr 25
Waxing Crescent
Apr 29
First Quarter
May 5
Full
May 12
Last Quarter
May 20
New

Hourly Weather History & Observations

Time (AST) Temp. Heat Index Dew Point Humidity Pressure Visibility Wind Dir Wind Speed Gust Speed Precip Events Conditions
12:00 AM 80.6 °F 86.2 °F 75.2 °F 84% 29.89 in - North - - N/A   Unknown
1:00 AM 80.6 °F 86.2 °F 75.2 °F 84% 29.86 in - North - - N/A   Unknown
2:00 AM 80.6 °F 86.2 °F 75.2 °F 84% 29.86 in - North - - N/A   Unknown
3:00 AM 80.6 °F 86.2 °F 75.2 °F 84% 29.83 in - North - - N/A   Unknown
4:00 AM 80.6 °F 86.2 °F 75.2 °F 84% 29.83 in - North - - N/A   Unknown
5:00 AM 80 °F - 75 °F 81%  in - Calm Calm - -   Clear
5:00 AM 80.6 °F 86.2 °F 75.2 °F 84% 29.83 in - North - - N/A   Unknown
6:00 AM 80.6 °F 86.2 °F 75.2 °F 84% 29.86 in - North - - N/A   Unknown
7:00 AM 82.4 °F 89.5 °F 75.2 °F 79% 29.86 in - North - - N/A   Unknown
8:00 AM 84 °F - 75 °F 67% 29.90 in 19 mi East 18.4 mph - -   Partly Cloudy
8:00 AM 82.4 °F 89.5 °F 75.2 °F 79% 29.89 in 6.2 mi East 20.7 mph - N/A   Scattered Clouds
9:00 AM 86.0 °F 96.9 °F 77.0 °F 74% 29.92 in - North - - N/A   Unknown
10:00 AM 86.0 °F 96.9 °F 77.0 °F 74% 29.92 in 6.2 mi ESE 16.1 mph - N/A   Scattered Clouds
11:00 AM 89 °F - 77 °F 61% 29.94 in 19 mi East 18.4 mph - -   Partly Cloudy
11:00 AM 86.0 °F 95.1 °F 75.2 °F 70% 29.92 in 6.2 mi East 18.4 mph - N/A   Scattered Clouds
12:00 PM 86.0 °F 95.1 °F 75.2 °F 70% 29.92 in 6.2 mi East 20.7 mph - N/A   Scattered Clouds
1:00 PM 87.8 °F 97.6 °F 75.2 °F 66% 29.89 in - North - - N/A   Unknown
2:00 PM 87.8 °F 95.6 °F 73.4 °F 62% 29.83 in - North - - N/A   Unknown
3:00 PM 87.8 °F 95.6 °F 73.4 °F 62% 29.83 in 6.2 mi East 23.0 mph - N/A   Partly Cloudy
4:00 PM 86.0 °F 95.1 °F 75.2 °F 70% 29.83 in 6.2 mi East 21.9 mph - N/A   Partly Cloudy
5:00 PM 85 °F - 76 °F 68% 29.83 in 19 mi East 20.7 mph - -   Partly Cloudy
5:00 PM 84.2 °F 92.3 °F 75.2 °F 74% 29.80 in 6.2 mi East 20.7 mph - N/A   Partly Cloudy
6:00 PM 84.2 °F 92.3 °F 75.2 °F 74% 29.80 in 6.2 mi East 20.7 mph - N/A   Partly Cloudy
7:00 PM 82.4 °F 88.2 °F 73.4 °F 74% 29.83 in 6.2 mi East 19.6 mph - N/A   Partly Cloudy
8:00 PM 82 °F - 75 °F 75% 29.87 in 19 mi East 19.6 mph - -   Scattered Clouds
8:00 PM 82.4 °F 89.5 °F 75.2 °F 79% 29.86 in 6.2 mi East 19.6 mph - N/A   Partly Cloudy
9:00 PM 80.6 °F 86.2 °F 75.2 °F 84% 29.89 in - North - - N/A   Unknown
10:00 PM 80.6 °F 86.2 °F 75.2 °F 84% 29.89 in - North - - N/A   Unknown
11:00 PM 81 °F - 74 °F 75%  in - Calm Calm - -  
11:00 PM 80.6 °F 85.4 °F 73.4 °F 79% 29.92 in - North - - N/A   Unknown